Location: Amon Carter Post Office
(32.8281°N, 97.0484°W)
Time: 07:24:29
(UTC+00:00)

SL-27 R/B - Visible Passes

Search period start: 26 June 2022 00:00
Search period end: 06 July 2022 00:00
Orbit: 411 x 457 km, 74.7° (Epoch: 25 June)

Date Brightness Start Highest point End Pass type
(mag) Time Alt. Az. Time Alt. Az. Time Alt. Az.
26 Jun 4.1 08:49:35 29° N 08:49:35 29° N 08:51:26 10° N visible
27 Jun 5.2 08:09:32 18° NE 08:09:32 18° NE 08:10:31 10° NNE visible
28 Jun 4.9 09:02:45 13° NW 09:02:45 13° NW 09:03:31 10° NNW visible
29 Jun 5.1 08:22:36 17° N 08:22:36 17° N 08:23:29 10° N visible
30 Jun 5.7 07:42:25 12° NNE 07:42:25 12° NNE 07:42:43 10° NNE visible
02 Jul 5.7 07:55:17 11° N 07:55:17 11° N 07:55:24 10° N visible
